Location: Carrières
(48.9495°N, 2.0407°E)
Time: 23:00:51
(UTC+00:00)

Cosmos 1238 Rocket - Pass Details

Date: 28 January 2023
Orbit: 372 x 962 km, 83.0° (Epoch: 21 March)

Event Time Altitude Azimuth Distance (km) Brightness Sun altitude
Rises 17:52:49 0° 347° (NNW) 2,823 6.4 -11.7°
Reaches altitude 10° 17:54:52 10° 344° (NNW) 2,006 5.7 -12.0°
Maximum altitude 17:59:17 62° 264° (W) 800 3.9 -12.7°
Drops below altitude 10° 18:04:33 10° 185° (S) 2,377 6.3 -13.5°
Sets 18:07:09 0° 182° (S) 3,393 7.0 -13.9°
